Skip Page Navigation
NASA JPL Caltech
NASA Logo - Jet Propulsion Laboratory + View the NASA Portal
+ Center for Near-Earth Object Studies
JPL Home Earth Solar System Stars & Galaxies Technology
JPL Solar System Dynamics
BODIES ORBITS EPHEMERIDES TOOLS PHYSICAL DATA DISCOVERY FAQ SITE MAP
JPL Small-Body Database Browser
Search: [ help ]  
362235 (2009 JN7)
Classification: Main-belt Asteroid          SPK-ID: 2362235
Ephemeris | Orbit Diagram | Orbital Elements | Mission Design | Physical Parameters | Discovery Circumstances ]

[ show orbit diagram ]
Orbital Elements at Epoch 2459200.5 (2020-Dec-17.0) TDB
Reference: JPL 16 (heliocentric ecliptic J2000)
 Element Value Uncertainty (1-sigma)   Units 
e .1006730382734645 5.5884e-08  
a 2.642568088494011 2.993e-08 au
q 2.376532730180818 1.4533e-07 au
i 3.77675312625609 4.8171e-06 deg
node 67.25219363407119 9.2795e-05 deg
peri 244.7444530953125 9.7061e-05 deg
M 184.1328806207308 3.2644e-05 deg
tp 2459967.013583512542
(2023-Jan-22.51358351)
0.00015109 TDB
period 1569.053334349677
4.30
2.6657e-05
7.298e-08
d
yr
n .2294377075137529 3.8979e-09 deg/d
Q 2.908603446807205 3.2943e-08 au
  Orbit Determination Parameters
   # obs. used (total)      174  
   data-arc span      5265 days (14.41 yr)  
   first obs. used      2006-10-18  
   last obs. used      2021-03-18  
   planetary ephem.      DE441  
   SB-pert. ephem.      SB441-N16  
   condition code      0  
   norm. resid. RMS      .53542  
   source      ORB  
   producer      Otto Matic  
   solution date      2021-May-04 12:18:09  

Additional Information
 Earth MOID = 1.36328 au 
 Jupiter MOID = 2.30796 au 
 T_jup = 3.384 
[ show covariance matrix ]

Ephemeris | Orbit Diagram | Orbital Elements | Mission Design | Physical Parameters | Discovery Circumstances ]

Physical Parameter Table
Parameter Symbol Value Units Sigma Reference Notes
absolute magnitude H 17.20   n/a MPCxxxxx  

362235 (2009 JN7)          Discovered 2009-May-13 by Spacewatch at Kitt Peak
Reference: Last Updated: 2013-04-29
Ephemeris | Orbit Diagram | Orbital Elements | Mission Design | Physical Parameters | Discovery Circumstances ]
ABOUT SSD CREDITS/AWARDS PRIVACY/COPYRIGHT GLOSSARY LINKS
FirstGov 2021-Jun-19 04:48 UT
(server date/time)  
NASA Home Page
Site Manager:   Ryan S. Park
Webmaster  Alan B. Chamberlin